Location: Poughquag
(41.6090°N, 73.6820°W)
Time: 18:44:35
(UTC-04:00)

S-56A Canister/Altair - Pass Details

Date: 02 June 2020
Orbit: 633 x 2499 km, 38.9° (Epoch: 19 September)

Event Time Altitude Azimuth Distance (km) Brightness Sun altitude
Exits shadow 04:08:48 14° 204° (SSW) 2,045 9.1 -11.7°
Maximum altitude 04:12:41 31° 147° (SSE) 1,504 8.9 -11.2°
Drops below altitude 10° 04:18:48 10° 87° (E) 3,066 11.4 -10.3°
Sets 04:22:29 0° 79° (E) 4,358 12.5 -9.8°
